GW5385 Weather Reports


Display with metric or nautical units.
time (UTC)temp
F
wind
direction
speed
MPH
gust
MPH
rain 1hr
in
rain 24hr
in
rain mn
in
humidity
%
barometer
mb
20260507194509 65 349 10.0 17.0 0.00 0.00 0.00 33 1013.6
20260507193008 66 311 5.0 11.0 0.00 0.00 0.00 34 1013.4
20260507191504 68 331 3.0 14.0 0.00 0.00 0.00 33 1013.3
20260507190003 66 333 4.0 18.0 0.00 0.00 0.00 35 1013.5
20260507184501 66 290 2.0 12.0 0.00 0.00 0.00 36 1013.5
20260507183100 64 323 5.0 15.0 0.00 0.00 0.00 37 1013.7
20260507181558 65 322 11.0 20.0 0.00 0.00 0.00 35 1013.7
20260507180057 65 342 8.0 15.0 0.00 0.00 0.00 36 1013.8
20260507174605 65 337 5.0 13.0 0.00 0.00 0.00 37 1014.0
20260507173055 65 338 8.0 18.0 0.00 0.00 0.00 36 1014.1
20260507171523 65 328 9.0 20.0 0.00 0.00 0.00 36 1014.2
20260507170024 65 356 10.0 19.0 0.00 0.00 0.00 38 1014.2
20260507164520 65 352 8.0 18.0 0.00 0.00 0.00 38 1014.3
20260507163017 64 331 10.0 18.0 0.00 0.00 0.00 39 1014.1
20260507161522 64 347 10.0 19.0 0.00 0.00 0.00 39 1014.1
20260507160018 63 30 5.0 19.0 0.00 0.00 0.00 39 1014.0
20260507154511 63 323 3.0 8.0 0.00 0.00 0.00 40 1014.2
20260507153008 62 341 3.0 9.0 0.00 0.00 0.00 41 1014.1
20260507151506 61 300 2.0 5.0 0.00 0.00 0.00 41 1014.1
20260507150001 60 285 1.0 5.0 0.00 0.00 0.00 43 1014.2
20260507144615 58 306 0.0 3.0 0.00 0.00 0.00 45 1014.2
20260507143057 57 280 0.0 6.0 0.00 0.00 0.00 44 1014.1
20260507141615 57 343 2.0 10.0 0.00 0.00 0.00 43 1014.1
20260507140050 55 343 5.0 10.0 0.00 0.00 0.00 47 1014.2
20260507134547 51 38 2.0 4.0 0.00 0.00 0.00 55 1014.0
20260507133042 49 23 0.0 1.0 0.00 0.00 0.00 58 1013.8
20260507131543 48 60 0.0 1.0 0.00 0.00 0.00 58 1013.7
20260507130039 48 345 2.0 4.0 0.00 0.00 0.00 58 1013.6
20260507124535 46 333 2.0 5.0 0.00 0.00 0.00 59 1013.4
20260507123034 45 306 1.0 3.0 0.00 0.00 0.00 60 1013.3
20260507121532 44 290 0.0 2.0 0.00 0.00 0.00 60 1013.1
20260507120032 43 266 0.0 2.0 0.00 0.00 0.00 61 1013.0
20260507114601 43 305 1.0 3.0 0.00 0.00 0.00 61 1012.9
20260507113058 43 307 0.0 3.0 0.00 0.00 0.00 58 1012.9
20260507111556 43 302 0.0 1.0 0.00 0.00 0.00 56 1012.8
20260507110055 43 284 0.0 0.0 0.00 0.00 0.00 58 1012.7
20260507104556 44 284 0.0 2.0 0.00 0.00 0.00 56 1012.5
20260507103053 43 325 0.0 1.0 0.00 0.00 0.00 55 1012.4
20260507101552 43 325 0.0 3.0 0.00 0.00 0.00 56 1012.3
20260507100049 42 25 4.0 6.0 0.00 0.00 0.00 58 1012.4
20260507094549 43 300 0.0 4.0 0.00 0.00 0.00 57 1012.1
20260507093048 43 248 0.0 3.0 0.00 0.00 0.00 57 1011.9
20260507091545 43 25 0.0 3.0 0.00 0.00 0.00 56 1011.9
20260507090043 44 36 4.0 8.0 0.00 0.00 0.00 55 1012.2
20260507084544 44 34 5.0 8.0 0.00 0.00 0.00 57 1011.9
20260507083039 43 27 4.0 6.0 0.00 0.00 0.00 58 1011.4
20260507081535 43 7 1.0 3.0 0.00 0.00 0.00 56 1011.4
20260507080039 43 29 3.0 5.0 0.00 0.00 0.00 56 1011.4
20260507074532 41 31 2.0 7.0 0.00 0.00 0.00 55 1011.6
20260507073029 43 307 0.0 1.0 0.00 0.00 0.00 53 1011.3
20260507071528 44 39 2.0 4.0 0.00 0.00 0.00 51 1011.2
20260507070022 45 63 2.0 3.0 0.00 0.00 0.00 49 1011.0
20260507064520 47 32 5.0 9.0 0.00 0.00 0.00 48 1011.1
20260507064517 47 33 5.0 9.0 0.00 0.00 0.00 48 1011.1
20260507063014 48 15 5.0 8.0 0.00 0.00 0.00 46 1011.0
20260507061509 50 29 6.0 14.0 0.00 0.00 0.00 44 1010.9
20260507054602 53 59 12.0 23.0 0.00 0.00 0.00 35 1011.0
20260507053058 56 46 12.0 17.0 0.00 0.00 0.00 34 1010.8
20260507051554 58 86 7.0 11.0 0.00 0.00 0.00 31 1009.8
20260507050051 56 79 1.0 5.0 0.00 0.00 0.00 37 1009.7
20260507044559 56 20 2.0 5.0 0.00 0.00 0.00 38 1009.7
20260507043053 57 28 3.0 5.0 0.00 0.00 0.00 38 1009.6
20260507041550 57 7 0.0 3.0 0.00 0.00 0.00 43 1009.6
20260507040046 59 229 0.0 2.0 0.00 0.00 0.00 41 1009.4
20260507034548 60 220 1.0 2.0 0.00 0.00 0.00 40 1009.4
20260507033046 61 219 2.0 6.0 0.00 0.00 0.00 39 1009.4
20260507031546 63 251 4.0 8.0 0.00 0.00 0.00 38 1009.4
20260507030042 64 241 4.0 10.0 0.00 0.00 0.00 35 1009.9
20260507024544 57 248 1.0 4.0 0.00 0.00 0.00 35 1009.9
20260507023040 59 301 1.0 2.0 0.00 0.00 0.00 34 1009.3
20260507021541 63 359 1.0 3.0 0.00 0.00 0.00 28 1008.9
20260507020045 64 4 1.0 2.0 0.00 0.00 0.00 28 1008.9
20260507014537 67 14 2.0 5.0 0.00 0.00 0.00 26 1008.9
20260507013036 68 13 2.0 5.0 0.00 0.00 0.00 24 1009.0
20260507011535 69 355 2.0 9.0 0.00 0.00 0.00 23 1009.1
20260507010032 70 348 4.0 11.0 0.00 0.00 0.00 22 1009.1
20260507004533 71 333 5.0 14.0 0.00 0.00 0.00 22 1009.2
20260507003032 71 29 10.0 16.0 0.00 0.00 0.00 22 1009.4
20260507001535 72 328 7.0 13.0 0.00 0.00 0.00 22 1009.4
20260507000025 71 12 6.0 14.0 0.00 0.00 0.00 22 1009.5
20260506234523 71 324 7.0 14.0 0.00 0.00 0.00 23 1009.6
20260506233022 70 317 6.0 14.0 0.00 0.00 0.00 22 1009.5
20260506231520 71 307 8.0 13.0 0.00 0.00 0.00 22 1009.6
20260506230017 72 300 5.0 11.0 0.00 0.00 0.00 23 1009.7
20260506224515 70 13 2.0 10.0 0.00 0.00 0.00 23 1009.8
20260506223011 71 343 3.0 6.0 0.00 0.00 0.00 23 1010.1
20260506221508 69 276 1.0 4.0 0.00 0.00 0.00 23 1010.5
20260506220004 69 304 4.0 12.0 0.00 0.00 0.00 23 1010.8
20260506214502 69 283 7.0 14.0 0.00 0.00 0.00 23 1011.0
20260506213059 68 17 8.0 13.0 0.00 0.00 0.00 23 1011.2
20260506211556 66 269 4.0 7.0 0.00 0.00 0.00 24 1011.4
20260506210053 66 293 3.0 8.0 0.00 0.00 0.00 24 1011.8
20260506204554 66 336 4.0 9.0 0.00 0.00 0.00 23 1012.0
20260506203051 65 319 4.0 8.0 0.00 0.00 0.00 25 1012.3
20260506201543 64 248 2.0 8.0 0.00 0.00 0.00 25 1012.4
20260506200038 64 300 3.0 12.0 0.00 0.00 0.00 25 1012.7